VR2HK-13 Yau Tong HK current weather conditions

sailwx.info

Wind from 251 at 2 knots gusting 5

Air temperature 25.0° C
Dewpoint 20.9° C

Last reported at 2020-Oct-26 09:03 UTC.
Time now 2020-Oct-26 09:50 UTC

Location: N 22°18' E 114°14'.
View on Google Maps.

See reports from other nearby stations

  
Tides and Currents Weather Stations Pressure Air Temp Water Temp Dewpoint Dewpoint Depression Visibility Wind Speed Wind Dir Waves Ship Positions
date/time (UTC)wind fromknots sea level pressurealtimeterstation pressurevisibilityair tempwater tempwave heightnotes
2020-Oct-26 09:03 251 2 gusting 5 25.0
2020-Oct-26 08:58 360 0 gusting 5 25.0
2020-Oct-26 08:53 329 0 gusting 4 25.0
2020-Oct-26 08:48 109 0 gusting 4 25.0
2020-Oct-26 08:43 290 0 gusting 4 25.6
2020-Oct-26 08:38 013 0 gusting 4 26.1
2020-Oct-26 08:33 298 0 gusting 3 26.1
2020-Oct-26 08:28 333 0 gusting 3 26.1
2020-Oct-26 08:23 115 0 gusting 4 26.7
2020-Oct-26 08:18 251 0 gusting 5 26.7
2020-Oct-26 08:13 094 1 gusting 5 26.7
2020-Oct-26 08:08 296 1 gusting 7 26.7
2020-Oct-26 08:03 285 1 gusting 7 26.7
2020-Oct-26 07:58 247 3 gusting 6 27.8
2020-Oct-26 07:53 040 0 gusting 6 27.8
2020-Oct-26 07:48 263 0 gusting 6 28.3
2020-Oct-26 07:43 318 1 gusting 3 28.3
2020-Oct-26 07:38 291 0 gusting 3 28.3
2020-Oct-26 07:33 248 1 gusting 3 28.3
2020-Oct-26 07:28 165 0 gusting 7 27.8
2020-Oct-26 07:23 281 2 gusting 7 27.2
2020-Oct-26 07:18 267 2 gusting 6 27.2
2020-Oct-26 07:13 174 2 gusting 5 27.2
2020-Oct-26 07:08 234 2 gusting 5 27.8
2020-Oct-26 07:03 302 2 gusting 4 28.3
2020-Oct-26 06:58 233 2 gusting 5 28.9
2020-Oct-26 06:53 277 1 gusting 5 28.9
2020-Oct-26 06:48 270 0 gusting 5 28.3
2020-Oct-26 06:43 283 2 gusting 5 28.9
2020-Oct-26 06:38 269 1 gusting 5 28.9
2020-Oct-26 06:33 332 1 gusting 3 28.9
2020-Oct-26 06:28 271 1 gusting 4 28.9
2020-Oct-26 06:23 314 2 gusting 6 28.9
2020-Oct-26 06:18 305 2 gusting 6 28.3
2020-Oct-26 06:13 213 1 gusting 5 28.9
2020-Oct-26 06:08 302 1 gusting 6 28.3
2020-Oct-26 06:03 322 2 gusting 6 27.2
2020-Oct-26 05:58 180 2 gusting 5 27.8
2020-Oct-26 05:53 203 0 gusting 6 28.9
2020-Oct-26 05:48 254 2 gusting 6 28.9
2020-Oct-26 05:43 360 0 gusting 5 28.3
2020-Oct-26 05:38 351 0 gusting 5 27.8
2020-Oct-26 05:33 051 0 gusting 6 27.8
2020-Oct-26 05:28 322 0 gusting 6 26.7
2020-Oct-26 05:23 092 1 gusting 7 26.7
2020-Oct-26 05:18 192 3 gusting 7 26.1
2020-Oct-26 05:13 180 4 gusting 7 26.7
2020-Oct-26 05:08 283 2 gusting 6 27.8
2020-Oct-26 05:03 192 2 gusting 6 28.3
2020-Oct-26 04:58 156 1 gusting 4 28.9
2020-Oct-26 04:53 291 0 gusting 4 28.9
2020-Oct-26 04:45 238 1 gusting 4 29.4
2020-Oct-26 04:43 050 1 gusting 4 29.4
2020-Oct-26 04:38 237 1 gusting 4 28.9
2020-Oct-26 04:33 023 0 gusting 4 28.9
2020-Oct-26 04:28 261 1 gusting 4 28.9
2020-Oct-26 04:23 028 0 gusting 6 28.3
2020-Oct-26 04:18 269 2 gusting 6 27.8
2020-Oct-26 04:13 228 2 gusting 6 27.8
2020-Oct-26 04:08 253 2 gusting 6 27.2
2020-Oct-26 04:03 235 1 gusting 6 28.3
2020-Oct-26 03:58 287 1 gusting 6 28.3
2020-Oct-26 03:53 148 0 gusting 5 28.9
2020-Oct-26 00:03
2020-Oct-25 22:03 307
2020-Oct-25 20:03
2020-Oct-25 19:03
2020-Oct-25 18:08
2020-Oct-25 18:03
2020-Oct-25 17:04
2020-Oct-25 16:03 316 2 22.8
2020-Oct-25 15:13
2020-Oct-25 15:08
2020-Oct-25 15:03 22.8
2020-Oct-25 14:28 261 2 23.3
2020-Oct-25 14:23 357 1 23.3
2020-Oct-25 14:18 23.3
2020-Oct-25 14:08 357 2 23.3
2020-Oct-25 14:03 273 1 23.3
2020-Oct-25 13:43 330 0 23.3
2020-Oct-25 13:38 213 2 23.3
2020-Oct-25 13:33 359 2 23.3
2020-Oct-25 13:28 285 0 23.3
2020-Oct-25 13:23 333 0 23.3
2020-Oct-25 13:18 047 0 23.3
2020-Oct-25 13:13
2020-Oct-25 13:08
2020-Oct-25 13:03
2020-Oct-25 12:58
2020-Oct-25 12:53
2020-Oct-25 12:48
2020-Oct-25 12:43
2020-Oct-25 12:38
2020-Oct-25 12:33
2020-Oct-25 12:28
2020-Oct-25 12:23
2020-Oct-25 12:18
2020-Oct-25 12:13
2020-Oct-25 12:08
2020-Oct-25 12:03
2020-Oct-25 11:58
2020-Oct-25 11:53
2020-Oct-25 11:48
2020-Oct-25 11:43
2020-Oct-25 11:38
2020-Oct-25 11:33
2020-Oct-25 11:28
2020-Oct-25 11:23
2020-Oct-25 11:18
2020-Oct-25 11:13
2020-Oct-25 11:08
2020-Oct-25 11:03
2020-Oct-25 10:58
2020-Oct-25 10:53
2020-Oct-25 10:48
2020-Oct-25 10:43
2020-Oct-25 10:38
2020-Oct-25 10:33
2020-Oct-25 10:28
2020-Oct-25 10:23
2020-Oct-25 10:18 23.3
2020-Oct-25 10:13 23.3
2020-Oct-25 10:08 23.3
2020-Oct-25 10:03 23.3
2020-Oct-25 09:58 23.9
2020-Oct-25 09:53 23.9
2020-Oct-25 09:48 23.9
2020-Oct-25 09:43 23.9
2020-Oct-25 09:38 23.9
2020-Oct-25 09:33 23.9
2020-Oct-25 09:28 23.9
2020-Oct-25 09:23 23.9
2020-Oct-25 09:18 23.9
2020-Oct-25 09:13 23.9
2020-Oct-25 09:08 23.9
2020-Oct-25 09:03 23.9
2020-Oct-25 08:58 23.9
2020-Oct-25 08:53 24.4
2020-Oct-25 08:48 24.4
2020-Oct-25 08:43 24.4
2020-Oct-25 08:38 24.4
2020-Oct-25 08:33 24.4
2020-Oct-25 08:28 24.4
2020-Oct-25 08:23 25.0
2020-Oct-25 08:18 25.6
2020-Oct-25 08:13 004 1 25.6
2020-Oct-25 08:08 008 1 25.6
2020-Oct-25 08:03 141 0 26.1
2020-Oct-25 07:58 279 0 25.6
2020-Oct-25 07:53 257 0 25.6
2020-Oct-25 07:48 240 0 26.1
2020-Oct-25 07:43 064 1 26.1
2020-Oct-25 07:38 320 0 26.1
2020-Oct-25 07:33 012 0 26.7
2020-Oct-25 07:28 053 0 26.7
2020-Oct-25 07:23 290 1 27.2
2020-Oct-25 07:18 146 1 27.8
2020-Oct-25 07:13 349 0 27.8
2020-Oct-25 07:08 348 1 27.2
2020-Oct-25 07:03 302 1 26.7
2020-Oct-25 06:58 191 1 26.7
2020-Oct-25 06:53 194 2 27.2
2020-Oct-25 06:48 277 0 26.7
2020-Oct-25 06:43 233 1 25.6
2020-Oct-25 06:38 080 1 26.1
2020-Oct-25 06:33 113 1 26.7
2020-Oct-25 06:28 021 1 27.8
2020-Oct-25 06:23 334 0 27.2
2020-Oct-25 06:18 299 1 27.8
2020-Oct-25 06:13 043 1 28.9
2020-Oct-25 06:08 062 2 28.3
2020-Oct-25 06:03 276 3 28.3
2020-Oct-25 05:58 353 2 28.3
2020-Oct-25 05:53 195 1 28.3
2020-Oct-25 05:48 264 1 27.2
2020-Oct-25 05:43 044 1 26.1
2020-Oct-25 05:38 012 2 26.7
2020-Oct-25 05:33 167 3 27.2
2020-Oct-25 05:28 340 0 28.3
2020-Oct-25 05:23 185 0 28.3
2020-Oct-25 05:16 358 1 gusting 7 28.9
2020-Oct-25 05:13 272 2 gusting 7 28.9
2020-Oct-25 05:08 229 2 gusting 7 29.4
2020-Oct-25 05:03 360 3 gusting 6 29.4
2020-Oct-25 04:58 298 2 gusting 6 28.9
2020-Oct-25 04:53 308 1 gusting 8 28.9
2020-Oct-25 04:48 262 2 gusting 8 28.9
2020-Oct-25 04:43 197 2 gusting 6 28.9
2020-Oct-25 04:38 241 2 gusting 5 28.3
2020-Oct-25 04:33 110 1 gusting 4 27.8
2020-Oct-25 04:28 360 0 gusting 5 26.7
2020-Oct-25 04:21 224 0 gusting 6 26.7
2020-Oct-25 04:18 180 1 gusting 6 26.1
2020-Oct-25 04:13 038 2 gusting 8 26.7
2020-Oct-25 04:08 237 1 gusting 8 25.6
2020-Oct-25 04:03 351 2 gusting 6 26.1
2020-Oct-25 03:58 279 2 gusting 6 25.6
2020-Oct-25 03:53 300 1 gusting 8 25.0
2020-Oct-25 03:48 196 2 gusting 8 25.0
2020-Oct-25 03:43 325 3 gusting 8 25.0
2020-Oct-25 03:36 309 0 gusting 6 25.0
2020-Oct-25 03:33 059 1 gusting 6 24.4
2020-Oct-25 03:28 043 2 gusting 8 24.4
2020-Oct-25 03:23 344 1 gusting 8 25.6
2020-Oct-25 03:18 220 0 gusting 4 25.6
2020-Oct-25 03:13 360 1 gusting 4 25.6
2020-Oct-25 03:08 057 1 gusting 4 25.6
2020-Oct-25 03:03 204 1 gusting 4 25.6
2020-Oct-25 02:58 360 2 gusting 9 25.0
2020-Oct-25 02:53 057 2 gusting 9 25.6
2020-Oct-25 02:48 132 0 gusting 5 25.6
2020-Oct-25 02:43 033 0 gusting 4 25.6
2020-Oct-25 02:38 276 0 gusting 5 25.0
2020-Oct-25 02:33 036 1 gusting 6 25.0
2020-Oct-25 02:28 219 1 gusting 6 24.4
2020-Oct-25 02:23 295 2 gusting 6 25.0
2020-Oct-25 02:18 129 0 gusting 6 25.0
2020-Oct-25 02:13 040 0 gusting 6 24.4
2020-Oct-25 02:08 310 1 gusting 7 24.4
2020-Oct-25 02:03 008 2 gusting 10 24.4
2020-Oct-25 01:58 097 3 gusting 10 23.9
2020-Oct-25 01:53 217 3 gusting 11 23.9
2020-Oct-25 01:48 249 0 gusting 11 24.4
2020-Oct-25 01:43 014 0 gusting 5 24.4
2020-Oct-25 01:38 261 1 gusting 8 24.4
2020-Oct-25 01:33 223 0 gusting 8 23.9
2020-Oct-25 01:28 258 1 gusting 6 23.9
2020-Oct-25 01:23 019 0 gusting 8 23.9
2020-Oct-25 01:18 191 4 gusting 8 23.9
2020-Oct-25 01:13 251 1 gusting 6 23.9
2020-Oct-25 01:08 253 1 gusting 5 23.9
2020-Oct-25 01:03 308 2 gusting 5 23.9
2020-Oct-25 00:58 318 1 gusting 6 23.9
2020-Oct-25 00:53 279 4 gusting 6 23.3
2020-Oct-25 00:48 305 0 gusting 6 23.3
2020-Oct-25 00:43 193 2 gusting 6 23.3
2020-Oct-25 00:38 257 3 gusting 9 23.3
2020-Oct-25 00:33 292 1 gusting 9 23.3
2020-Oct-25 00:28 303 2 gusting 5 23.3
2020-Oct-25 00:23 237 1 gusting 5 23.3
2020-Oct-25 00:18 246 0 gusting 5 23.3
2020-Oct-25 00:13 104 0 gusting 6 23.3
2020-Oct-25 00:08 327 2 gusting 6 22.8
2020-Oct-25 00:03 342 1 gusting 5 22.8
2020-Oct-24 23:58 239 2 gusting 6 22.8
2020-Oct-24 23:53 230 0 gusting 8 22.8
2020-Oct-24 23:48 280 2 gusting 8 22.8
2020-Oct-24 23:43 348 0 gusting 3 23.3
2020-Oct-24 23:38 261 0 gusting 8 22.8
2020-Oct-24 23:33 100 3 gusting 8 22.8
2020-Oct-24 23:28 239 0 gusting 3 22.8
2020-Oct-24 23:23 360 1 gusting 4 22.8
2020-Oct-24 23:18 045 1 gusting 6 22.8
2020-Oct-24 23:13 303 2 gusting 6 22.8
2020-Oct-24 23:08 360 1 gusting 6 22.8
2020-Oct-24 23:03 037 1 gusting 6 22.8
2020-Oct-24 22:58 301 0 gusting 6 22.2
2020-Oct-24 22:53 288 2 gusting 6 22.2
2020-Oct-24 22:48 087 1 gusting 6 22.2
2020-Oct-24 22:43 310 0 gusting 7 22.2
2020-Oct-24 22:38 299 2 gusting 7 22.2
2020-Oct-24 22:33 056 0 gusting 7 22.2
2020-Oct-24 22:28 277 2 gusting 8 22.2
2020-Oct-24 22:23 315 1 gusting 10 22.2
2020-Oct-24 22:18 246 2 gusting 10 22.2
2020-Oct-24 22:13 343 1 gusting 6 22.2
2020-Oct-24 22:08 206 2 gusting 6 22.2
2020-Oct-24 22:03 297 1 gusting 5 22.2
2020-Oct-24 21:58 313 1 gusting 4 22.2
2020-Oct-24 21:53 302 1 gusting 5 22.2
2020-Oct-24 21:48 324 0 gusting 5 22.2
2020-Oct-24 21:43 309 0 gusting 5 22.2
2020-Oct-24 21:36 128 1 gusting 5 22.2
2020-Oct-24 21:33 220 0 gusting 6 22.2
2020-Oct-24 21:28 015 1 gusting 6 22.2
2020-Oct-24 21:23 206 1 gusting 6 22.2
2020-Oct-24 21:18 202 1 gusting 6 22.2
2020-Oct-24 21:13 328 0 gusting 6 22.2
2020-Oct-24 21:08 257 1 gusting 6 22.2
2020-Oct-24 21:03 142 2 gusting 6 22.2
2020-Oct-24 20:58 324 0 gusting 5 22.2
2020-Oct-24 20:53 243 0 gusting 3 22.2
2020-Oct-24 20:48 211 1 gusting 3 22.2
2020-Oct-24 20:43 269 0 gusting 6 22.2
2020-Oct-24 20:38 051 0 gusting 6 22.2
2020-Oct-24 20:33 065 1 gusting 7 22.2
2020-Oct-24 20:28 240 1 gusting 11 22.2
2020-Oct-24 20:23 334 3 gusting 11 22.2
2020-Oct-24 20:18 233 2 gusting 6 22.2
2020-Oct-24 20:13 012 1 gusting 5 22.2
2020-Oct-24 20:08 311 1 gusting 6 22.2
2020-Oct-24 20:03 169 1 gusting 8 22.2
2020-Oct-24 19:58 282 2 gusting 8 22.2
2020-Oct-24 19:53 277 1 gusting 6 22.2
2020-Oct-24 19:48 245 0 gusting 9 22.2
2020-Oct-24 19:43 224 1 gusting 9 22.8
2020-Oct-24 19:38 051 3 gusting 8 22.8
2020-Oct-24 19:31 279 2 gusting 8 22.8
2020-Oct-24 19:28 038 2 gusting 6 22.8
2020-Oct-24 19:23 002 1 gusting 6 22.8
2020-Oct-24 19:18 274 2 gusting 6 22.8
2020-Oct-24 19:13 265 1 gusting 6 22.8
2020-Oct-24 19:08 302 1 gusting 6 22.8
2020-Oct-24 19:03 245 1 gusting 6 22.8
2020-Oct-24 18:58 099 0 gusting 5 22.8
2020-Oct-24 18:53 273 0 gusting 5 22.8
2020-Oct-24 18:48 277 1 gusting 6 22.8
2020-Oct-24 18:43 257 2 gusting 6 22.8
2020-Oct-24 18:38 234 2 gusting 6 22.8
2020-Oct-24 18:33 341 0 gusting 6 22.8
2020-Oct-24 18:28 290 1 gusting 6 22.8
2020-Oct-24 18:23 267 0 gusting 8 22.8
2020-Oct-24 18:18 238 1 gusting 8 22.8
2020-Oct-24 18:13 312 1 gusting 6 22.8
2020-Oct-24 18:08 159 1 gusting 6 22.8
2020-Oct-24 18:03 241 1 gusting 6 22.8
2020-Oct-24 17:58 259 2 gusting 6 22.8
2020-Oct-24 17:53 217 2 gusting 6 22.8
2020-Oct-24 17:48 030 3 gusting 6 22.8
2020-Oct-24 17:43 275 1 gusting 6 22.8
2020-Oct-24 17:38 283 2 gusting 10 22.8
2020-Oct-24 17:33 266 2 gusting 10 22.8
2020-Oct-24 17:28 247 0 gusting 6 22.8
2020-Oct-24 17:23 270 1 gusting 6 22.8
2020-Oct-24 17:18 243 2 gusting 5 22.8
2020-Oct-24 17:13 173 1 gusting 4 22.8
2020-Oct-24 17:08 042 0 gusting 3 22.8
2020-Oct-24 17:03 268 0 gusting 5 22.8
2020-Oct-24 16:58 285 2 gusting 7 22.8
2020-Oct-24 16:53 016 0 gusting 7 22.8
2020-Oct-24 16:48 261 2 gusting 7 22.8
2020-Oct-24 16:43 264 2 gusting 6 22.8
2020-Oct-24 16:38 354 3 gusting 6 22.8
2020-Oct-24 16:33 017 1 gusting 6 22.8
2020-Oct-24 16:28 238 3 gusting 6 22.8
2020-Oct-24 16:23 348 3 gusting 8 22.8
2020-Oct-24 16:18 279 2 gusting 8 22.8
2020-Oct-24 16:13 173 3 gusting 7 22.8
2020-Oct-24 16:08 168 2 gusting 7 22.8
2020-Oct-24 16:03 237 2 gusting 7 22.8
2020-Oct-24 15:58 245 2 gusting 9 22.8
2020-Oct-24 15:53 307 1 gusting 9 23.3
2020-Oct-24 15:48 197 4 gusting 6 23.3
2020-Oct-24 15:43 229 3 gusting 6 23.3
2020-Oct-24 15:38 050 2 gusting 6 23.3
2020-Oct-24 15:33 172 2 gusting 6 23.3
2020-Oct-24 15:26 133 2 gusting 8 23.3
2020-Oct-24 15:23 177 3 gusting 8 23.3
2020-Oct-24 15:18 211 1 gusting 10 23.3
2020-Oct-24 15:13 216 3 gusting 10 23.3
2020-Oct-24 15:08 226 3 gusting 6 23.3
2020-Oct-24 15:03 262 0 gusting 4 23.3
2020-Oct-24 14:58 243 1 gusting 5 22.8
2020-Oct-24 14:53 012 1 gusting 6 22.8
2020-Oct-24 14:48 236 4 gusting 6 22.8
2020-Oct-24 14:43 263 2 gusting 6 23.3
2020-Oct-24 14:38 276 1 gusting 6 23.3
2020-Oct-24 14:33 225 2 gusting 8 23.3
2020-Oct-24 14:28 254 3 gusting 10 23.3
2020-Oct-24 14:23 083 2 gusting 10 23.3
2020-Oct-24 14:18 287 1 gusting 8 23.3
2020-Oct-24 14:13 360 1 gusting 8 23.3
2020-Oct-24 14:08 253 4 gusting 8 23.3
2020-Oct-24 14:03 293 3 gusting 8 23.3
2020-Oct-24 13:58 258 2 gusting 7 23.3
2020-Oct-24 13:53 248 0 gusting 4 23.3
2020-Oct-24 13:48 055 0 gusting 7 23.3
2020-Oct-24 13:43 242 2 gusting 7 23.3
2020-Oct-24 13:38 010 1 gusting 9 23.3
2020-Oct-24 13:33 188 3 gusting 9 23.3
2020-Oct-24 13:28 243 2 gusting 6 23.3
2020-Oct-24 13:23 256 2 gusting 6 23.3
2020-Oct-24 13:18 333 1 gusting 5 23.3
2020-Oct-24 13:13 254 0 gusting 3 23.3
2020-Oct-24 13:08 355 0 gusting 4 23.3
2020-Oct-24 13:03 043 1 gusting 6 23.3
2020-Oct-24 12:58 260 1 gusting 6 23.3
2020-Oct-24 12:53 309 2 gusting 6 23.3
2020-Oct-24 12:48 071 0 gusting 4 23.3
2020-Oct-24 12:43 341 2 gusting 4 23.3
2020-Oct-24 12:38 244 0 gusting 3 23.3
2020-Oct-24 12:33 256 0 gusting 3 23.3
2020-Oct-24 12:28 210 0 gusting 3 23.3
2020-Oct-24 12:23 238 1 gusting 2 23.3
2020-Oct-24 12:18 360 0 gusting 4 23.3
2020-Oct-24 12:13 286 0 gusting 4 23.3
2020-Oct-24 12:08 192 0 gusting 3 23.3
2020-Oct-24 12:03 019 1 gusting 6 23.3
2020-Oct-24 11:58 267 0 gusting 6 23.3
2020-Oct-24 11:53 032 0 gusting 2 23.3
2020-Oct-24 11:48 215 0 gusting 5 23.3
2020-Oct-24 11:43 036 1 gusting 5 23.3
2020-Oct-24 11:38 203 1 gusting 4 23.3
2020-Oct-24 11:33 045 0 gusting 3 23.3
2020-Oct-24 11:28 323 23.3
2020-Oct-24 11:23 247 2 gusting 6 23.3
2020-Oct-24 11:18 248 1 gusting 5 23.3
2020-Oct-24 11:13 251 1 gusting 4 23.3
2020-Oct-24 11:08 024 0 gusting 4 23.3
2020-Oct-24 11:03 158 0 gusting 6 23.3
2020-Oct-24 10:58 240 0 gusting 6 23.3
2020-Oct-24 10:53 277 1 gusting 7 23.3
2020-Oct-24 10:48 251 0 gusting 7 23.3
2020-Oct-24 10:43 013 1 gusting 6 23.3
2020-Oct-24 10:38 172 2 gusting 5 23.3
2020-Oct-24 10:33 059 0 gusting 3 23.3
2020-Oct-24 10:28 322 0 gusting 4 23.3
2020-Oct-24 10:23 252 0 gusting 14 23.3
2020-Oct-24 10:18 199 1 gusting 14 23.3
2020-Oct-24 10:13 342 2 gusting 7 23.3
2020-Oct-24 10:08 323 1 gusting 6 23.3
2020-Oct-24 10:03 288 1 gusting 6 23.3
2020-Oct-24 09:58 170 0 gusting 6 23.3
2020-Oct-24 09:53 296 2 gusting 6 23.3
2020-Oct-24 09:48 298 0 gusting 6 23.3
2020-Oct-24 09:43 296 0 gusting 5 23.9
2020-Oct-24 09:38 212 0 gusting 5 23.9
2020-Oct-24 09:33 259 2 gusting 5 23.9
2020-Oct-24 09:28 208 0 gusting 2 23.9
2020-Oct-24 09:23 005 0 gusting 3 23.9
2020-Oct-24 09:18 264 1 gusting 3 23.9
2020-Oct-24 09:13 067 0 gusting 3 23.9
2020-Oct-24 09:08 266 23.9
2020-Oct-24 09:03 128 0 gusting 4 23.9